Time,TemperatureF,DewpointF,PressureIn,WindDirection,WindDirectionDegrees,WindSpeedMPH,WindSpeedGustMPH,Humidity,HourlyPrecipIn,Conditions,Clouds,dailyrainin,SoftwareType,DateUTC
2013-05-09 00:00:00,58.9,52.7,29.95,WNW,293,16.0,21.0,80,0.00,-RA,-RA,0.00,WeatherDisplay:10.37,2013-05-09 05:00:00,
2013-05-09 00:06:00,58.7,52.5,29.94,WNW,288,13.0,13.0,80,0.00,-RA,-RA,0.00,WeatherDisplay:10.37,2013-05-09 05:06:00,
2013-05-09 00:12:00,58.3,52.8,29.94,WNW,288,8.0,13.0,82,0.00,-RA,-RA,0.00,WeatherDisplay:10.37,2013-05-09 05:12:00,
2013-05-09 00:18:00,58.3,52.8,29.94,WNW,283,8.0,12.0,82,0.00,-RA,-RA,0.00,WeatherDisplay:10.37,2013-05-09 05:18:00,
2013-05-09 00:24:00,58.2,52.7,29.94,WNW,293,7.0,12.0,82,0.00,-RA,-RA,0.01,WeatherDisplay:10.37,2013-05-09 05:24:00,
2013-05-09 00:30:00,58.0,52.5,29.94,WNW,291,8.0,12.0,82,0.00,-RA,-RA,0.01,WeatherDisplay:10.37,2013-05-09 05:30:00,
2013-05-09 00:36:00,57.8,53.0,29.94,WNW,301,9.0,9.0,84,0.00,-RA,-RA,0.01,WeatherDisplay:10.37,2013-05-09 05:36:00,
2013-05-09 00:42:00,57.6,53.1,29.95,NW,309,3.0,9.0,85,0.00,-RA,-RA,0.01,WeatherDisplay:10.37,2013-05-09 05:42:00,
2013-05-09 00:48:00,57.4,53.2,29.95,NW,315,7.0,8.0,86,0.01,-RA,-RA,0.02,WeatherDisplay:10.37,2013-05-09 05:48:00,
2013-05-09 00:54:00,57.2,53.0,29.95,NW,305,8.0,10.0,86,0.01,-RA,-RA,0.03,WeatherDisplay:10.37,2013-05-09 05:54:00,
2013-05-09 01:00:00,57.2,53.3,29.95,WNW,289,3.0,6.0,87,0.02,-RA,-RA,0.05,WeatherDisplay:10.37,2013-05-09 06:00:00,
2013-05-09 01:06:00,57.1,53.5,29.94,East,99,0.0,2.0,88,0.00,-RA,-RA,0.05,WeatherDisplay:10.37,2013-05-09 06:06:00,
2013-05-09 01:12:00,57.1,53.8,29.94,NW,324,1.0,3.0,89,0.01,-RA,-RA,0.06,WeatherDisplay:10.37,2013-05-09 06:12:00,
2013-05-09 01:18:00,56.9,54.3,29.94,South,174,0.0,0.0,91,0.00,-RA,-RA,0.06,WeatherDisplay:10.37,2013-05-09 06:18:00,
2013-05-09 01:24:00,56.7,54.1,29.94,ESE,117,0.0,0.0,91,0.01,-RA,-RA,0.07,WeatherDisplay:10.37,2013-05-09 06:24:00,
2013-05-09 01:30:00,56.5,54.2,29.93,East,83,0.0,1.0,92,0.00,-RA,-RA,0.07,WeatherDisplay:10.37,2013-05-09 06:30:00,
2013-05-09 01:36:00,56.5,54.5,29.93,North,10,0.0,0.0,93,0.00,-RA,-RA,0.07,WeatherDisplay:10.37,2013-05-09 06:36:00,
2013-05-09 01:42:00,56.3,54.3,29.92,North,10,1.0,4.0,93,0.00,-RA,-RA,0.07,WeatherDisplay:10.37,2013-05-09 06:42:00,
2013-05-09 01:48:00,56.5,54.5,29.92,West,275,2.0,2.0,93,0.00,-RA,-RA,0.07,WeatherDisplay:10.37,2013-05-09 06:48:00,
2013-05-09 01:54:00,56.5,54.8,29.94,WSW,257,1.0,2.0,94,0.00,-RA,-RA,0.07,WeatherDisplay:10.37,2013-05-09 06:54:00,
2013-05-09 02:00:00,56.5,54.8,29.94,South,190,3.0,4.0,94,0.00,-RA,-RA,0.07,WeatherDisplay:10.37,2013-05-09 07:00:00,
2013-05-09 02:06:00,56.3,54.6,29.93,SSW,207,5.0,6.0,94,0.00,-RA,-RA,0.07,WeatherDisplay:10.37,2013-05-09 07:06:00,
2013-05-09 02:12:00,56.3,54.6,29.93,South,172,7.0,9.0,94,0.00,-RA,-RA,0.08,WeatherDisplay:10.37,2013-05-09 07:12:00,
2013-05-09 02:18:00,56.9,55.2,29.91,SSE,158,6.0,9.0,94,0.00,-RA,-RA,0.09,WeatherDisplay:10.37,2013-05-09 07:18:00,
2013-05-09 02:24:00,56.9,55.2,29.91,SSE,161,7.0,8.0,94,0.00,-RA,-RA,0.09,WeatherDisplay:10.37,2013-05-09 07:24:00,
2013-05-09 02:30:00,56.9,55.2,29.91,SE,136,7.0,12.0,94,0.01,-RA,-RA,0.11,WeatherDisplay:10.37,2013-05-09 07:30:00,
2013-05-09 02:36:00,57.1,55.4,29.90,SE,137,7.0,14.0,94,0.00,-RA,-RA,0.11,WeatherDisplay:10.37,2013-05-09 07:36:00,
2013-05-09 02:42:00,58.0,56.0,29.88,SE,140,9.0,14.0,93,0.00,-RA,-RA,0.11,WeatherDisplay:10.37,2013-05-09 07:42:00,
2013-05-09 02:48:00,59.0,55.7,29.88,SE,132,12.0,17.0,89,0.00,-RA,-RA,0.12,WeatherDisplay:10.37,2013-05-09 07:48:00,
2013-05-09 02:54:00,59.4,56.1,29.85,SE,133,9.0,21.0,89,0.00,-RA,-RA,0.12,WeatherDisplay:10.37,2013-05-09 07:54:00,
2013-05-09 03:00:00,59.7,55.9,29.85,SE,139,20.0,26.0,87,0.00,-RA,-RA,0.12,WeatherDisplay:10.37,2013-05-09 08:00:00,
2013-05-09 03:06:00,59.8,55.6,29.83,SSE,149,12.0,21.0,86,0.00,-RA,-RA,0.12,WeatherDisplay:10.37,2013-05-09 08:06:00,
2013-05-09 03:12:00,60.1,55.2,29.84,SE,145,14.0,23.0,84,0.00,-RA,-RA,0.12,WeatherDisplay:10.37,2013-05-09 08:12:00,
2013-05-09 03:18:00,59.8,55.2,29.85,SE,143,6.0,12.0,85,0.00,-RA,-RA,0.13,WeatherDisplay:10.37,2013-05-09 08:18:00,
2013-05-09 03:24:00,59.6,55.1,29.85,SE,138,13.0,23.0,85,0.00,-RA,-RA,0.13,WeatherDisplay:10.37,2013-05-09 08:24:00,
2013-05-09 03:30:00,59.2,55.0,29.84,SE,127,9.0,13.0,86,0.00,-RA,-RA,0.13,WeatherDisplay:10.37,2013-05-09 08:30:00,
2013-05-09 03:36:00,59.2,54.4,29.83,ESE,104,13.0,16.0,84,0.00,-RA,-RA,0.13,WeatherDisplay:10.37,2013-05-09 08:36:00,
2013-05-09 03:42:00,59.7,54.2,29.80,ESE,109,10.0,14.0,82,0.00,-RA,-RA,0.13,WeatherDisplay:10.37,2013-05-09 08:42:00,
2013-05-09 03:48:00,60.0,54.2,29.80,ESE,109,9.0,13.0,81,0.00,-RA,-RA,0.13,WeatherDisplay:10.37,2013-05-09 08:48:00,
2013-05-09 03:54:00,60.1,54.2,29.83,WNW,286,16.0,23.0,81,0.00,-RA,-RA,0.13,WeatherDisplay:10.37,2013-05-09 08:54:00,
2013-05-09 04:00:00,60.9,53.6,29.83,WNW,283,17.0,20.0,77,0.00,-RA,-RA,0.13,WeatherDisplay:10.37,2013-05-09 09:00:00,
2013-05-09 04:06:00,61.6,53.9,29.85,WNW,288,6.0,14.0,76,0.00,-RA,-RA,0.13,WeatherDisplay:10.37,2013-05-09 09:06:00,
2013-05-09 04:12:00,61.4,53.4,29.85,WNW,303,3.0,6.0,75,0.00,-RA,-RA,0.13,WeatherDisplay:10.37,2013-05-09 09:12:00,
2013-05-09 04:18:00,61.2,53.9,29.85,WNW,293,9.0,10.0,77,0.00,-RA,-RA,0.13,WeatherDisplay:10.37,2013-05-09 09:18:00,
2013-05-09 04:24:00,60.7,53.8,29.85,WNW,291,6.0,9.0,78,0.00,-RA,-RA,0.13,WeatherDisplay:10.37,2013-05-09 09:24:00,
2013-05-09 04:30:00,59.9,54.0,29.88,WNW,288,1.0,5.0,81,0.00,-RA,-RA,0.13,WeatherDisplay:10.37,2013-05-09 09:30:00,
2013-05-09 04:36:00,59.6,54.1,29.87,West,280,2.0,4.0,82,0.00,-RA,-RA,0.13,WeatherDisplay:10.37,2013-05-09 09:36:00,
2013-05-09 04:42:00,58.9,54.4,29.87,WNW,290,6.0,7.0,85,0.00,-RA,-RA,0.13,WeatherDisplay:10.37,2013-05-09 09:42:00,
2013-05-09 04:48:00,58.4,54.2,29.87,WNW,299,0.0,3.0,86,0.00,-RA,-RA,0.13,WeatherDisplay:10.37,2013-05-09 09:48:00,
2013-05-09 04:54:00,58.0,54.2,29.87,WNW,286,0.0,0.0,87,0.00,-RA,-RA,0.13,WeatherDisplay:10.37,2013-05-09 09:54:00,
2013-05-09 05:00:00,57.7,54.1,29.87,WNW,297,3.0,7.0,88,0.00,-RA,-RA,0.13,WeatherDisplay:10.37,2013-05-09 10:00:00,
2013-05-09 05:06:00,57.4,54.1,29.86,NW,304,0.0,5.0,89,0.00,OVC,OVC,0.13,WeatherDisplay:10.37,2013-05-09 10:06:00,
2013-05-09 05:12:00,57.1,53.8,29.86,WNW,303,0.0,0.0,89,0.00,OVC,OVC,0.13,WeatherDisplay:10.37,2013-05-09 10:12:00,
2013-05-09 05:18:00,56.9,54.3,29.85,WNW,295,3.0,6.0,91,0.00,OVC,OVC,0.13,WeatherDisplay:10.37,2013-05-09 10:18:00,
2013-05-09 05:24:00,56.5,53.9,29.85,WNW,303,5.0,5.0,91,0.00,OVC,OVC,0.13,WeatherDisplay:10.37,2013-05-09 10:24:00,
2013-05-09 05:30:00,56.3,54.0,29.85,WNW,296,5.0,8.0,92,0.00,OVC,OVC,0.13,WeatherDisplay:10.37,2013-05-09 10:30:00,
2013-05-09 05:36:00,56.3,54.0,29.86,WNW,297,7.0,7.0,92,0.00,OVC,OVC,0.13,WeatherDisplay:10.37,2013-05-09 10:36:00,
2013-05-09 05:42:00,56.2,54.2,29.86,WNW,302,6.0,7.0,93,0.00,OVC,OVC,0.13,WeatherDisplay:10.37,2013-05-09 10:42:00,
2013-05-09 05:48:00,56.0,54.0,29.86,WNW,303,5.0,6.0,93,0.00,OVC,OVC,0.13,WeatherDisplay:10.37,2013-05-09 10:48:00,
2013-05-09 05:54:00,56.0,54.0,29.86,NW,304,5.0,6.0,93,0.00,OVC,OVC,0.13,WeatherDisplay:10.37,2013-05-09 10:54:00,
2013-05-09 06:00:00,55.8,53.8,29.86,NW,304,0.0,0.0,93,0.00,OVC,OVC,0.13,WeatherDisplay:10.37,2013-05-09 11:00:00,
2013-05-09 06:06:00,55.6,53.6,29.87,WNW,295,0.0,0.0,93,0.00,OVC,OVC,0.13,WeatherDisplay:10.37,2013-05-09 11:06:00,
2013-05-09 06:12:00,55.6,53.6,29.87,WNW,296,0.0,0.0,93,0.00,OVC,OVC,0.13,WeatherDisplay:10.37,2013-05-09 11:12:00,
2013-05-09 06:18:00,55.4,53.4,29.87,WNW,293,0.0,0.0,93,0.00,OVC,OVC,0.13,WeatherDisplay:10.37,2013-05-09 11:18:00,
2013-05-09 06:24:00,55.4,53.7,29.87,WNW,290,0.0,0.0,94,0.00,OVC,OVC,0.13,WeatherDisplay:10.37,2013-05-09 11:24:00,
2013-05-09 06:30:00,55.3,53.6,29.88,WNW,286,0.0,0.0,94,0.00,OVC,OVC,0.13,WeatherDisplay:10.37,2013-05-09 11:30:00,
2013-05-09 06:36:00,55.2,53.5,29.88,West,280,0.0,0.0,94,0.00,OVC,OVC,0.13,WeatherDisplay:10.37,2013-05-09 11:36:00,
2013-05-09 06:42:00,55.1,53.4,29.89,WNW,295,0.0,0.0,94,0.00,OVC,OVC,0.13,WeatherDisplay:10.37,2013-05-09 11:42:00,
2013-05-09 06:48:00,54.9,53.2,29.89,WNW,291,0.0,0.0,94,0.00,OVC,OVC,0.13,WeatherDisplay:10.37,2013-05-09 11:48:00,
2013-05-09 06:54:00,54.9,53.2,29.89,WNW,297,0.0,0.0,94,0.00,OVC,OVC,0.13,WeatherDisplay:10.37,2013-05-09 11:54:00,
2013-05-09 07:00:00,54.8,53.1,29.90,WNW,292,0.0,0.0,94,0.00,OVC,OVC,0.13,WeatherDisplay:10.37,2013-05-09 12:00:00,
2013-05-09 07:06:00,54.7,53.0,29.90,WNW,283,5.0,7.0,94,0.00,OVC,OVC,0.13,WeatherDisplay:10.37,2013-05-09 12:06:00,
2013-05-09 07:12:00,54.7,53.0,29.90,WNW,287,3.0,6.0,94,0.00,OVC,OVC,0.13,WeatherDisplay:10.37,2013-05-09 12:12:00,
2013-05-09 07:18:00,54.7,53.0,29.90,WNW,286,3.0,4.0,94,0.00,OVC,OVC,0.13,WeatherDisplay:10.37,2013-05-09 12:18:00,
2013-05-09 07:24:00,54.9,53.2,29.90,WNW,286,0.0,0.0,94,0.00,OVC,OVC,0.13,WeatherDisplay:10.37,2013-05-09 12:24:00,
2013-05-09 07:30:00,55.1,53.4,29.90,WNW,287,0.0,0.0,94,0.00,OVC,OVC,0.13,WeatherDisplay:10.37,2013-05-09 12:30:00,
2013-05-09 07:36:00,55.3,53.6,29.90,WNW,284,2.0,6.0,94,0.00,BKN,BKN,0.13,WeatherDisplay:10.37,2013-05-09 12:36:00,
2013-05-09 07:42:00,55.6,53.6,29.91,WNW,288,5.0,7.0,93,0.00,BKN,BKN,0.13,WeatherDisplay:10.37,2013-05-09 12:42:00,
2013-05-09 07:48:00,55.8,53.5,29.91,WNW,297,6.0,7.0,92,0.00,BKN,BKN,0.13,WeatherDisplay:10.37,2013-05-09 12:48:00,
2013-05-09 07:54:00,56.0,53.7,29.91,WNW,296,5.0,7.0,92,0.00,BKN,BKN,0.13,WeatherDisplay:10.37,2013-05-09 12:54:00,
2013-05-09 08:00:00,56.2,53.9,29.92,WNW,303,2.0,5.0,92,0.00,BKN,BKN,0.13,WeatherDisplay:10.37,2013-05-09 13:00:00,
2013-05-09 08:06:00,56.2,53.6,29.92,NW,304,2.0,4.0,91,0.00,BKN,BKN,0.13,WeatherDisplay:10.37,2013-05-09 13:06:00,
2013-05-09 08:12:00,56.2,53.6,29.92,WNW,299,3.0,8.0,91,0.00,BKN,BKN,0.13,WeatherDisplay:10.37,2013-05-09 13:12:00,
2013-05-09 08:18:00,56.4,53.2,29.92,WNW,289,1.0,7.0,89,0.00,BKN,BKN,0.13,WeatherDisplay:10.37,2013-05-09 13:18:00,
2013-05-09 08:24:00,57.1,53.6,29.92,West,279,3.0,6.0,88,0.00,BKN,BKN,0.13,WeatherDisplay:10.37,2013-05-09 13:24:00,
2013-05-09 08:30:00,58.2,54.0,29.92,West,280,6.0,7.0,86,0.00,BKN,BKN,0.13,WeatherDisplay:10.37,2013-05-09 13:30:00,
2013-05-09 08:36:00,58.9,54.4,29.92,WNW,289,5.0,6.0,85,0.00,BKN,BKN,0.13,WeatherDisplay:10.37,2013-05-09 13:36:00,
2013-05-09 08:42:00,59.0,54.5,29.92,WNW,303,7.0,8.0,85,0.00,BKN,BKN,0.13,WeatherDisplay:10.37,2013-05-09 13:42:00,
2013-05-09 08:48:00,59.5,54.7,29.92,WNW,288,3.0,7.0,84,0.00,BKN,BKN,0.13,WeatherDisplay:10.37,2013-05-09 13:48:00,
2013-05-09 08:54:00,59.8,54.9,29.93,West,278,7.0,11.0,84,0.00,BKN,BKN,0.13,WeatherDisplay:10.37,2013-05-09 13:54:00,
2013-05-09 09:00:00,60.0,55.2,29.93,West,276,6.0,7.0,84,0.00,BKN,BKN,0.13,WeatherDisplay:10.37,2013-05-09 14:00:00,
2013-05-09 09:06:00,60.5,54.9,29.94,WNW,289,8.0,9.0,82,0.00,SCT,SCT,0.13,WeatherDisplay:10.37,2013-05-09 14:06:00,
2013-05-09 09:12:00,60.9,56.0,29.94,WNW,293,6.0,7.0,84,0.00,SCT,SCT,0.13,WeatherDisplay:10.37,2013-05-09 14:12:00,
2013-05-09 09:18:00,61.6,55.3,29.94,WNW,301,7.0,9.0,80,0.00,SCT,SCT,0.13,WeatherDisplay:10.37,2013-05-09 14:18:00,
2013-05-09 09:24:00,61.9,55.3,29.94,WNW,289,6.0,8.0,79,0.00,SCT,SCT,0.13,WeatherDisplay:10.37,2013-05-09 14:24:00,
2013-05-09 09:30:00,63.0,56.4,29.94,WNW,287,3.0,7.0,79,0.00,SCT,SCT,0.13,WeatherDisplay:10.37,2013-05-09 14:30:00,
2013-05-09 09:36:00,64.1,56.0,29.94,NW,306,6.0,8.0,75,0.00,SCT,SCT,0.13,WeatherDisplay:10.37,2013-05-09 14:36:00,
2013-05-09 09:42:00,64.7,56.6,29.94,WNW,299,8.0,9.0,75,0.00,SCT,SCT,0.13,WeatherDisplay:10.37,2013-05-09 14:42:00,
2013-05-09 09:48:00,64.6,56.5,29.94,NW,308,8.0,12.0,75,0.00,SCT,SCT,0.13,WeatherDisplay:10.37,2013-05-09 14:48:00,
2013-05-09 09:54:00,65.0,56.1,29.94,WNW,298,5.0,7.0,73,0.00,SCT,SCT,0.13,WeatherDisplay:10.37,2013-05-09 14:54:00,
2013-05-09 10:00:00,66.4,55.9,29.94,WNW,285,7.0,9.0,69,0.00,SCT,SCT,0.13,WeatherDisplay:10.37,2013-05-09 15:00:00,
2013-05-09 10:06:00,66.1,55.6,29.95,WNW,285,7.0,12.0,69,0.00,BKN,BKN,0.13,WeatherDisplay:10.37,2013-05-09 15:06:00,
2013-05-09 10:12:00,66.1,56.0,29.95,NW,322,6.0,10.0,70,0.00,BKN,BKN,0.13,WeatherDisplay:10.37,2013-05-09 15:12:00,
2013-05-09 10:18:00,66.1,55.6,29.96,WNW,285,6.0,9.0,69,0.00,BKN,BKN,0.13,WeatherDisplay:10.37,2013-05-09 15:18:00,
2013-05-09 10:24:00,66.2,55.7,29.96,WNW,282,8.0,10.0,69,0.00,BKN,BKN,0.13,WeatherDisplay:10.37,2013-05-09 15:24:00,
2013-05-09 10:30:00,66.8,56.3,29.96,West,279,8.0,14.0,69,0.00,BKN,BKN,0.13,WeatherDisplay:10.37,2013-05-09 15:30:00,
2013-05-09 10:36:00,67.2,57.1,29.96,WNW,283,8.0,13.0,70,0.00,BKN,BKN,0.13,WeatherDisplay:10.37,2013-05-09 15:36:00,
2013-05-09 10:42:00,67.0,56.5,29.96,WNW,295,8.0,12.0,69,0.00,BKN,BKN,0.13,WeatherDisplay:10.37,2013-05-09 15:42:00,
2013-05-09 10:48:00,67.7,57.2,29.96,WNW,289,8.0,10.0,69,0.00,BKN,BKN,0.13,WeatherDisplay:10.37,2013-05-09 15:48:00,
2013-05-09 10:54:00,67.9,57.0,29.96,WNW,296,10.0,14.0,68,0.00,BKN,BKN,0.13,WeatherDisplay:10.37,2013-05-09 15:54:00,
2013-05-09 11:00:00,68.3,57.3,29.96,WSW,252,6.0,12.0,68,0.00,BKN,BKN,0.13,WeatherDisplay:10.37,2013-05-09 16:00:00,
2013-05-09 11:06:00,68.9,57.9,29.96,SSW,202,3.0,7.0,68,0.00,BKN,BKN,0.13,WeatherDisplay:10.37,2013-05-09 16:06:00,
2013-05-09 11:12:00,69.1,57.7,29.96,WNW,299,9.0,15.0,67,0.00,BKN,BKN,0.13,WeatherDisplay:10.37,2013-05-09 16:12:00,
2013-05-09 11:18:00,69.3,57.0,29.96,NW,309,9.0,9.0,65,0.00,BKN,BKN,0.13,WeatherDisplay:10.37,2013-05-09 16:18:00,
2013-05-09 11:24:00,69.3,57.0,29.96,NW,315,9.0,9.0,65,0.00,BKN,BKN,0.13,WeatherDisplay:10.37,2013-05-09 16:24:00,
2013-05-09 11:30:00,69.3,57.0,29.96,NW,315,9.0,9.0,65,0.00,BKN,BKN,0.13,WeatherDisplay:10.37,2013-05-09 16:30:00,
2013-05-09 11:36:00,69.3,57.0,29.96,NW,315,9.0,9.0,65,0.00,BKN,BKN,0.13,WeatherDisplay:10.37,2013-05-09 16:36:00,
2013-05-09 11:42:00,69.3,57.0,29.96,NW,315,9.0,9.0,65,0.00,BKN,BKN,0.13,WeatherDisplay:10.37,2013-05-09 16:42:00,
2013-05-09 11:48:00,69.3,57.0,29.96,NW,315,9.0,9.0,65,0.00,BKN,BKN,0.13,WeatherDisplay:10.37,2013-05-09 16:48:00,
2013-05-09 11:54:00,69.3,57.0,29.96,NW,315,9.0,9.0,65,0.00,BKN,BKN,0.13,WeatherDisplay:10.37,2013-05-09 16:54:00,
2013-05-09 12:00:00,69.3,57.0,29.96,NW,315,9.0,9.0,65,0.00,BKN,BKN,0.13,WeatherDisplay:10.37,2013-05-09 17:00:00,
2013-05-09 12:06:00,69.3,57.0,29.96,NW,315,9.0,9.0,65,0.00,BKN,BKN,0.13,WeatherDisplay:10.37,2013-05-09 17:06:00,
2013-05-09 12:12:00,70.5,58.6,29.96,WNW,300,10.0,16.0,66,0.00,BKN,BKN,0.13,WeatherDisplay:10.37,2013-05-09 17:12:00,
2013-05-09 12:18:00,70.6,59.5,29.96,WNW,287,10.0,14.0,68,0.00,BKN,BKN,0.13,WeatherDisplay:10.37,2013-05-09 17:18:00,
2013-05-09 12:24:00,71.1,60.0,29.95,WNW,297,10.0,14.0,68,0.00,BKN,BKN,0.13,WeatherDisplay:10.37,2013-05-09 17:24:00,
2013-05-09 12:30:00,71.5,59.9,29.95,WNW,303,12.0,17.0,67,0.00,BKN,BKN,0.13,WeatherDisplay:10.37,2013-05-09 17:30:00,
2013-05-09 12:36:00,70.1,58.6,29.95,WNW,287,8.0,20.0,67,0.00,BKN,BKN,0.13,WeatherDisplay:10.37,2013-05-09 17:36:00,
2013-05-09 12:42:00,71.1,59.2,29.95,West,274,10.0,16.0,66,0.00,BKN,BKN,0.13,WeatherDisplay:10.37,2013-05-09 17:42:00,
2013-05-09 12:48:00,71.5,59.5,29.95,WNW,285,14.0,18.0,66,0.00,BKN,BKN,0.13,WeatherDisplay:10.37,2013-05-09 17:48:00,
2013-05-09 12:54:00,71.7,60.1,29.95,NW,312,14.0,18.0,67,0.00,BKN,BKN,0.13,WeatherDisplay:10.37,2013-05-09 17:54:00,
2013-05-09 13:00:00,70.7,59.2,29.95,NW,305,12.0,21.0,67,0.00,BKN,BKN,0.13,WeatherDisplay:10.37,2013-05-09 18:00:00,
2013-05-09 13:06:00,71.5,60.0,29.95,WNW,296,13.0,17.0,67,0.00,BKN,BKN,0.13,WeatherDisplay:10.37,2013-05-09 18:06:00,
2013-05-09 13:12:00,71.3,59.4,29.95,WNW,298,12.0,16.0,66,0.00,BKN,BKN,0.13,WeatherDisplay:10.37,2013-05-09 18:12:00,
2013-05-09 13:18:00,70.3,58.8,29.95,NW,307,12.0,19.0,67,0.00,BKN,BKN,0.13,WeatherDisplay:10.37,2013-05-09 18:18:00,
2013-05-09 13:24:00,72.2,59.3,29.95,WNW,302,12.0,16.0,64,0.00,BKN,BKN,0.13,WeatherDisplay:10.37,2013-05-09 18:24:00,
2013-05-09 13:30:00,71.8,59.0,29.94,West,281,7.0,14.0,64,0.00,BKN,BKN,0.13,WeatherDisplay:10.37,2013-05-09 18:30:00,
2013-05-09 13:36:00,73.3,59.5,29.94,WNW,290,14.0,19.0,62,0.00,BKN,BKN,0.13,WeatherDisplay:10.37,2013-05-09 18:36:00,
2013-05-09 13:42:00,72.4,59.1,29.94,NW,307,7.0,16.0,63,0.00,BKN,BKN,0.13,WeatherDisplay:10.37,2013-05-09 18:42:00,
2013-05-09 13:48:00,72.4,58.7,29.94,WNW,301,9.0,16.0,62,0.00,BKN,BKN,0.13,WeatherDisplay:10.37,2013-05-09 18:48:00,
2013-05-09 13:54:00,73.2,59.4,29.94,WNW,282,7.0,13.0,62,0.00,BKN,BKN,0.13,WeatherDisplay:10.37,2013-05-09 18:54:00,
2013-05-09 14:00:00,71.8,58.5,29.94,WNW,287,13.0,19.0,63,0.00,BKN,BKN,0.13,WeatherDisplay:10.37,2013-05-09 19:00:00,
2013-05-09 14:06:00,72.2,58.4,29.93,WNW,289,10.0,16.0,62,0.00,BKN,BKN,0.13,WeatherDisplay:10.37,2013-05-09 19:06:00,
2013-05-09 14:12:00,73.0,59.2,29.93,WNW,297,14.0,20.0,62,0.00,BKN,BKN,0.13,WeatherDisplay:10.37,2013-05-09 19:12:00,
2013-05-09 14:18:00,72.2,58.9,29.93,WNW,293,8.0,13.0,63,0.00,BKN,BKN,0.13,WeatherDisplay:10.37,2013-05-09 19:18:00,
2013-05-09 14:24:00,73.0,59.2,29.93,WNW,298,12.0,19.0,62,0.00,BKN,BKN,0.13,WeatherDisplay:10.37,2013-05-09 19:24:00,
2013-05-09 14:30:00,72.8,57.7,29.94,WNW,303,14.0,18.0,59,0.00,BKN,BKN,0.13,WeatherDisplay:10.37,2013-05-09 19:30:00,
2013-05-09 14:36:00,72.4,59.1,29.94,NW,305,14.0,23.0,63,0.00,BKN,BKN,0.13,WeatherDisplay:10.37,2013-05-09 19:36:00,
2013-05-09 14:42:00,73.4,59.5,29.94,NW,320,14.0,22.0,62,0.00,BKN,BKN,0.13,WeatherDisplay:10.37,2013-05-09 19:42:00,
2013-05-09 14:48:00,72.4,58.2,29.95,WNW,297,10.0,23.0,61,0.00,BKN,BKN,0.13,WeatherDisplay:10.37,2013-05-09 19:48:00,
2013-05-09 14:54:00,73.1,58.9,29.95,WNW,300,12.0,17.0,61,0.00,BKN,BKN,0.13,WeatherDisplay:10.37,2013-05-09 19:54:00,
2013-05-09 15:00:00,73.6,59.3,29.95,NW,310,13.0,16.0,61,0.00,BKN,BKN,0.13,WeatherDisplay:10.37,2013-05-09 20:00:00,
2013-05-09 15:06:00,73.6,58.4,29.95,NW,306,9.0,14.0,59,0.00,BKN,BKN,0.13,WeatherDisplay:10.37,2013-05-09 20:06:00,
2013-05-09 15:12:00,74.6,58.4,29.95,NW,308,8.0,18.0,57,0.00,BKN,BKN,0.13,WeatherDisplay:10.37,2013-05-09 20:12:00,
2013-05-09 15:18:00,73.7,58.5,29.95,WNW,289,8.0,14.0,59,0.00,BKN,BKN,0.13,WeatherDisplay:10.37,2013-05-09 20:18:00,
2013-05-09 15:24:00,74.0,58.8,29.95,WNW,296,8.0,17.0,59,0.00,BKN,BKN,0.13,WeatherDisplay:10.37,2013-05-09 20:24:00,
2013-05-09 15:30:00,75.1,58.8,29.95,NW,314,9.0,16.0,57,0.00,BKN,BKN,0.13,WeatherDisplay:10.37,2013-05-09 20:30:00,
2013-05-09 15:36:00,74.0,58.3,29.95,NW,307,8.0,12.0,58,0.00,BKN,BKN,0.13,WeatherDisplay:10.37,2013-05-09 20:36:00,
2013-05-09 15:42:00,74.1,57.9,29.95,West,281,9.0,15.0,57,0.00,BKN,BKN,0.13,WeatherDisplay:10.37,2013-05-09 20:42:00,
2013-05-09 15:48:00,74.5,57.8,29.95,WNW,296,7.0,10.0,56,0.00,BKN,BKN,0.13,WeatherDisplay:10.37,2013-05-09 20:48:00,
2013-05-09 15:54:00,74.2,57.5,29.95,WNW,297,12.0,12.0,56,0.00,BKN,BKN,0.13,WeatherDisplay:10.37,2013-05-09 20:54:00,
2013-05-09 16:00:00,73.6,57.5,29.95,WNW,290,3.0,7.0,57,0.00,BKN,BKN,0.13,WeatherDisplay:10.37,2013-05-09 21:00:00,
2013-05-09 16:06:00,75.7,57.8,29.94,WNW,297,5.0,12.0,54,0.00,SCT,SCT,0.13,WeatherDisplay:10.37,2013-05-09 21:06:00,
2013-05-09 16:12:00,73.1,56.4,29.94,WNW,297,12.0,14.0,56,0.00,SCT,SCT,0.13,WeatherDisplay:10.37,2013-05-09 21:12:00,
2013-05-09 16:18:00,73.6,56.4,29.95,WNW,289,7.0,12.0,55,0.00,SCT,SCT,0.13,WeatherDisplay:10.37,2013-05-09 21:18:00,
2013-05-09 16:24:00,72.2,56.2,29.95,WNW,286,7.0,10.0,57,0.00,SCT,SCT,0.13,WeatherDisplay:10.37,2013-05-09 21:24:00,
2013-05-09 16:30:00,73.6,56.9,29.94,WNW,290,8.0,12.0,56,0.00,SCT,SCT,0.13,WeatherDisplay:10.37,2013-05-09 21:30:00,
2013-05-09 16:36:00,75.3,58.0,29.94,WNW,290,8.0,13.0,55,0.00,SCT,SCT,0.13,WeatherDisplay:10.37,2013-05-09 21:36:00,
2013-05-09 16:42:00,72.6,57.4,29.94,WNW,289,6.0,9.0,59,0.00,SCT,SCT,0.13,WeatherDisplay:10.37,2013-05-09 21:42:00,
2013-05-09 16:48:00,74.3,57.5,29.94,WNW,297,6.0,12.0,56,0.00,SCT,SCT,0.13,WeatherDisplay:10.37,2013-05-09 21:48:00,
2013-05-09 16:54:00,74.0,57.3,29.94,WNW,298,10.0,13.0,56,0.00,SCT,SCT,0.13,WeatherDisplay:10.37,2013-05-09 21:54:00,
2013-05-09 17:00:00,73.6,57.9,29.94,WNW,301,6.0,12.0,58,0.00,SCT,SCT,0.13,WeatherDisplay:10.37,2013-05-09 22:00:00,
2013-05-09 17:06:00,74.7,58.0,29.94,WNW,297,6.0,9.0,56,0.00,SCT,SCT,0.13,WeatherDisplay:10.37,2013-05-09 22:06:00,
2013-05-09 17:12:00,73.0,56.9,29.94,NW,317,7.0,9.0,57,0.00,SCT,SCT,0.13,WeatherDisplay:10.37,2013-05-09 22:12:00,
2013-05-09 17:18:00,73.5,57.4,29.94,WNW,303,9.0,14.0,57,0.00,SCT,SCT,0.13,WeatherDisplay:10.37,2013-05-09 22:18:00,
2013-05-09 17:24:00,74.3,58.1,29.94,WNW,299,10.0,13.0,57,0.00,SCT,SCT,0.13,WeatherDisplay:10.37,2013-05-09 22:24:00,
2013-05-09 17:30:00,73.2,57.1,29.94,WNW,301,8.0,12.0,57,0.00,SCT,SCT,0.13,WeatherDisplay:10.37,2013-05-09 22:30:00,
2013-05-09 17:36:00,74.0,57.8,29.94,NW,311,9.0,16.0,57,0.00,SCT,SCT,0.13,WeatherDisplay:10.37,2013-05-09 22:36:00,
2013-05-09 17:42:00,73.4,56.7,29.94,WNW,297,12.0,16.0,56,0.00,SCT,SCT,0.13,WeatherDisplay:10.37,2013-05-09 22:42:00,
2013-05-09 17:48:00,73.4,56.8,29.94,WNW,289,6.0,10.0,56,0.00,SCT,SCT,0.13,WeatherDisplay:10.37,2013-05-09 22:48:00,
2013-05-09 17:54:00,73.6,55.9,29.94,WNW,292,7.0,12.0,54,0.00,SCT,SCT,0.13,WeatherDisplay:10.37,2013-05-09 22:54:00,
2013-05-09 18:00:00,74.2,57.0,29.94,WNW,287,8.0,9.0,55,0.00,SCT,SCT,0.13,WeatherDisplay:10.37,2013-05-09 23:00:00,
2013-05-09 18:06:00,75.5,58.2,29.94,WNW,282,6.0,9.0,55,0.00,SCT,SCT,0.13,WeatherDisplay:10.37,2013-05-09 23:06:00,
2013-05-09 18:12:00,75.6,57.3,29.94,WNW,286,7.0,13.0,53,0.00,SCT,SCT,0.13,WeatherDisplay:10.37,2013-05-09 23:12:00,
2013-05-09 18:18:00,75.0,56.7,29.94,NW,310,7.0,12.0,53,0.00,SCT,SCT,0.13,WeatherDisplay:10.37,2013-05-09 23:18:00,
2013-05-09 18:24:00,76.9,58.4,29.94,NW,326,5.0,7.0,53,0.00,SCT,SCT,0.13,WeatherDisplay:10.37,2013-05-09 23:24:00,
2013-05-09 18:30:00,75.7,57.3,29.94,NNW,340,10.0,12.0,53,0.00,SCT,SCT,0.13,WeatherDisplay:10.37,2013-05-09 23:30:00,
2013-05-09 18:36:00,75.6,57.7,29.94,NW,317,10.0,10.0,54,0.00,SCT,SCT,0.13,WeatherDisplay:10.37,2013-05-09 23:36:00,
2013-05-09 18:42:00,74.0,56.3,29.95,WNW,301,13.0,16.0,54,0.00,SCT,SCT,0.13,WeatherDisplay:10.37,2013-05-09 23:42:00,
2013-05-09 18:48:00,74.0,56.8,29.95,WNW,296,7.0,10.0,55,0.00,SCT,SCT,0.13,WeatherDisplay:10.37,2013-05-09 23:48:00,
2013-05-09 18:54:00,74.1,56.9,29.94,WNW,294,10.0,13.0,55,0.00,SCT,SCT,0.13,WeatherDisplay:10.37,2013-05-09 23:54:00,
2013-05-09 19:00:00,73.3,56.2,29.94,WNW,297,9.0,12.0,55,0.00,SCT,SCT,0.13,WeatherDisplay:10.37,2013-05-10 00:00:00,
2013-05-09 19:06:00,72.2,55.7,29.94,WNW,296,10.0,14.0,56,0.00,SCT,SCT,0.13,WeatherDisplay:10.37,2013-05-10 00:06:00,
2013-05-09 19:12:00,72.2,54.6,29.93,WNW,295,9.0,14.0,54,0.00,SCT,SCT,0.13,WeatherDisplay:10.37,2013-05-10 00:12:00,
2013-05-09 19:18:00,72.0,54.4,29.93,WNW,293,8.0,15.0,54,0.00,SCT,SCT,0.13,WeatherDisplay:10.37,2013-05-10 00:18:00,
2013-05-09 19:24:00,72.0,54.4,29.93,WNW,288,8.0,15.0,54,0.00,SCT,SCT,0.13,WeatherDisplay:10.37,2013-05-10 00:24:00,
2013-05-09 19:30:00,71.2,53.7,29.93,WNW,283,7.0,10.0,54,0.00,SCT,SCT,0.13,WeatherDisplay:10.37,2013-05-10 00:30:00,
2013-05-09 19:36:00,71.5,54.5,29.93,WNW,292,7.0,10.0,55,0.00,SCT,SCT,0.13,WeatherDisplay:10.37,2013-05-10 00:36:00,
2013-05-09 19:42:00,71.3,54.8,29.93,WNW,289,6.0,12.0,56,0.00,SCT,SCT,0.13,WeatherDisplay:10.37,2013-05-10 00:42:00,
2013-05-09 19:48:00,70.8,54.3,29.93,WNW,296,10.0,15.0,56,0.00,SCT,SCT,0.13,WeatherDisplay:10.37,2013-05-10 00:48:00,
2013-05-09 19:54:00,70.0,54.5,29.93,WNW,286,6.0,12.0,58,0.00,SCT,SCT,0.13,WeatherDisplay:10.37,2013-05-10 00:54:00,
2013-05-09 20:00:00,69.8,54.9,29.93,WNW,284,6.0,9.0,59,0.00,SCT,SCT,0.13,WeatherDisplay:10.37,2013-05-10 01:00:00,
2013-05-09 20:06:00,69.4,55.8,29.93,WNW,283,7.0,10.0,62,0.00,SCT,SCT,0.13,WeatherDisplay:10.37,2013-05-10 01:06:00,
2013-05-09 20:12:00,68.5,55.4,29.93,WNW,297,6.0,7.0,63,0.00,SCT,SCT,0.13,WeatherDisplay:10.37,2013-05-10 01:12:00,
2013-05-09 20:18:00,67.9,55.3,29.93,WNW,301,5.0,6.0,64,0.00,SCT,SCT,0.13,WeatherDisplay:10.37,2013-05-10 01:18:00,
2013-05-09 20:24:00,67.3,55.5,29.93,WNW,302,1.0,4.0,66,0.00,SCT,SCT,0.13,WeatherDisplay:10.37,2013-05-10 01:24:00,
2013-05-09 20:30:00,66.7,55.4,29.93,WNW,296,0.0,3.0,67,0.00,SCT,SCT,0.13,WeatherDisplay:10.37,2013-05-10 01:30:00,
2013-05-09 20:36:00,66.2,55.3,29.93,NNW,331,0.0,4.0,68,0.00,SCT,SCT,0.13,WeatherDisplay:10.37,2013-05-10 01:36:00,
2013-05-09 20:42:00,65.4,55.0,29.93,NNE,13,0.0,4.0,69,0.00,SCT,SCT,0.13,WeatherDisplay:10.37,2013-05-10 01:42:00,
2013-05-09 20:48:00,65.2,55.5,29.93,NNW,342,0.0,2.0,71,0.00,SCT,SCT,0.13,WeatherDisplay:10.37,2013-05-10 01:48:00,
2013-05-09 20:54:00,64.8,55.1,29.93,WNW,300,0.0,2.0,71,0.00,SCT,SCT,0.13,WeatherDisplay:10.37,2013-05-10 01:54:00,
2013-05-09 21:00:00,64.4,55.1,29.93,West,279,0.0,3.0,72,0.00,SCT,SCT,0.13,WeatherDisplay:10.37,2013-05-10 02:00:00,
2013-05-09 21:06:00,64.0,54.8,29.93,WNW,296,0.0,0.0,72,0.00,FEW,FEW,0.13,WeatherDisplay:10.37,2013-05-10 02:06:00,
2013-05-09 21:12:00,63.5,54.3,29.93,ENE,59,0.0,0.0,72,0.00,FEW,FEW,0.13,WeatherDisplay:10.37,2013-05-10 02:12:00,
2013-05-09 21:18:00,63.0,54.9,29.94,NNE,22,0.0,0.0,75,0.00,FEW,FEW,0.13,WeatherDisplay:10.37,2013-05-10 02:18:00,
2013-05-09 21:24:00,62.5,54.5,29.94,NNW,332,0.0,0.0,75,0.00,FEW,FEW,0.13,WeatherDisplay:10.37,2013-05-10 02:24:00,
2013-05-09 21:30:00,62.1,54.4,29.94,WNW,298,0.0,0.0,76,0.00,FEW,FEW,0.13,WeatherDisplay:10.37,2013-05-10 02:30:00,
2013-05-09 21:36:00,61.7,54.0,29.94,WNW,300,0.0,0.0,76,0.00,FEW,FEW,0.13,WeatherDisplay:10.37,2013-05-10 02:36:00,
2013-05-09 21:42:00,61.7,54.4,29.94,WNW,291,3.0,7.0,77,0.00,FEW,FEW,0.13,WeatherDisplay:10.37,2013-05-10 02:42:00,
2013-05-09 21:48:00,61.7,54.4,29.94,NW,314,3.0,5.0,77,0.00,FEW,FEW,0.13,WeatherDisplay:10.37,2013-05-10 02:48:00,
2013-05-09 21:54:00,61.6,54.6,29.95,NW,321,3.0,4.0,78,0.00,FEW,FEW,0.13,WeatherDisplay:10.37,2013-05-10 02:54:00,
2013-05-09 22:00:00,61.4,54.4,29.95,NW,325,1.0,4.0,78,0.00,FEW,FEW,0.13,WeatherDisplay:10.37,2013-05-10 03:00:00,
2013-05-09 22:06:00,61.4,54.8,29.96,WNW,289,1.0,5.0,79,0.00,FEW,FEW,0.13,WeatherDisplay:10.37,2013-05-10 03:06:00,
2013-05-09 22:12:00,60.9,54.4,29.96,SW,234,0.0,6.0,79,0.00,FEW,FEW,0.13,WeatherDisplay:10.37,2013-05-10 03:12:00,
2013-05-09 22:18:00,60.7,54.5,29.97,NW,312,1.0,4.0,80,0.00,FEW,FEW,0.13,WeatherDisplay:10.37,2013-05-10 03:18:00,
2013-05-09 22:24:00,60.5,54.3,29.97,NW,316,1.0,7.0,80,0.00,FEW,FEW,0.13,WeatherDisplay:10.37,2013-05-10 03:24:00,
2013-05-09 22:30:00,60.4,54.6,29.98,NW,309,2.0,5.0,81,0.00,FEW,FEW,0.13,WeatherDisplay:10.37,2013-05-10 03:30:00,
2013-05-09 22:36:00,60.5,54.6,29.98,WNW,292,1.0,5.0,81,0.00,FEW,FEW,0.13,WeatherDisplay:10.37,2013-05-10 03:36:00,
2013-05-09 22:42:00,60.1,54.2,29.99,WNW,285,2.0,6.0,81,0.00,FEW,FEW,0.13,WeatherDisplay:10.37,2013-05-10 03:42:00,
2013-05-09 22:48:00,59.9,54.4,29.99,WNW,301,5.0,6.0,82,0.00,FEW,FEW,0.13,WeatherDisplay:10.37,2013-05-10 03:48:00,
2013-05-09 22:54:00,59.8,54.3,29.99,NW,307,3.0,5.0,82,0.00,FEW,FEW,0.13,WeatherDisplay:10.37,2013-05-10 03:54:00,
2013-05-09 23:00:00,59.8,54.3,30.00,WNW,299,3.0,5.0,82,0.00,FEW,FEW,0.13,WeatherDisplay:10.37,2013-05-10 04:00:00,
2013-05-09 23:03:00,59.6,54.1,30.01,WNW,297,3.0,4.0,82,0.00,CLR,CLR,0.13,WeatherDisplay:10.37,2013-05-10 04:03:00,
2013-05-09 23:09:00,59.6,54.1,30.01,NW,322,0.0,3.0,82,0.00,CLR,CLR,0.13,WeatherDisplay:10.37,2013-05-10 04:09:00,
2013-05-09 23:12:00,59.6,54.1,30.01,NNW,344,1.0,7.0,82,0.00,CLR,CLR,0.13,WeatherDisplay:10.37,2013-05-10 04:12:00,
2013-05-09 23:18:00,59.2,54.3,30.00,NNW,335,1.0,3.0,84,0.00,CLR,CLR,0.13,WeatherDisplay:10.37,2013-05-10 04:18:00,
2013-05-09 23:24:00,59.0,54.5,30.00,NNW,334,2.0,3.0,85,0.00,CLR,CLR,0.13,WeatherDisplay:10.37,2013-05-10 04:24:00,
2013-05-09 23:30:00,58.9,54.7,30.00,NNW,337,2.0,5.0,86,0.00,CLR,CLR,0.13,WeatherDisplay:10.37,2013-05-10 04:30:00,
2013-05-09 23:36:00,58.7,54.5,30.01,NNW,341,3.0,4.0,86,0.00,CLR,CLR,0.13,WeatherDisplay:10.37,2013-05-10 04:36:00,
2013-05-09 23:42:00,58.7,54.5,30.01,WNW,289,3.0,7.0,86,0.00,CLR,CLR,0.13,WeatherDisplay:10.37,2013-05-10 04:42:00,
2013-05-09 23:48:00,58.7,54.5,30.01,NW,308,1.0,6.0,86,0.00,CLR,CLR,0.13,WeatherDisplay:10.37,2013-05-10 04:48:00,
2013-05-09 23:54:00,58.5,54.3,30.01,NW,308,7.0,9.0,86,0.00,CLR,CLR,0.13,WeatherDisplay:10.37,2013-05-10 04:54:00,